Date String (YYYY-MM-DD hh:mm:ss) UTC,Instrument flags,Ambient pressure (hPa),Sample flow (lpm),Bypass flow (lpm),Sample temperature (°C),Ambient temperature (°C),ASC tube jacket temperature (°C),LED temperature (°C),Box temperature (°C),Sample RH (%),Span deviation,Mass concentration (μg/m³),Mass concentration (μg/m³),Mass concentration (μg/m³)
DateTimeUTC,F1_M11,P_M11,Q1_M11,Q2_M11,T1_M11,T2_M11,T3_M11,T4_M11,T5_M11,U1_M11,ZSPAN_M11,X0_M11,X2_M11,X1_M11
2021-12-29 17:00:00,,0814.2,5.00,0.00,22.5,22.9,00.0,31.3,24.3,07.1,0000.0,0011.37,0003.43,0001.73
2021-12-29 17:01:00,,0814.6,5.00,0.00,22.4,22.7,00.0,31.3,24.1,07.1,0000.0,0011.47,0003.46,0001.74
2021-12-29 17:02:00,,0814.3,5.00,0.00,22.4,22.4,00.0,31.3,24.0,07.1,0000.0,0011.28,0003.45,0001.74
2021-12-29 17:03:00,,0814.3,5.00,0.00,22.4,22.2,00.0,31.3,24.0,07.1,0000.0,0011.34,0003.49,0001.76
2021-12-29 17:04:00,,0814.3,4.99,0.00,22.3,22.0,00.0,31.3,23.9,07.1,0000.0,0011.74,0003.48,0001.77
2021-12-29 17:05:00,,0814.4,5.00,0.00,22.3,21.8,00.0,31.3,23.9,07.1,0000.0,0011.77,0003.40,0001.76
2021-12-29 17:06:00,,0814.4,5.00,0.00,22.2,21.7,00.0,31.3,23.8,07.1,0000.0,0012.03,0003.39,0001.76
2021-12-29 17:07:00,,0814.5,5.00,0.00,22.2,21.6,00.0,31.3,23.8,07.1,0000.0,0012.42,0003.40,0001.77
2021-12-29 17:08:00,,0814.4,4.99,0.00,22.2,21.6,00.0,31.3,23.7,07.1,0000.0,0012.44,0003.43,0001.77
2021-12-29 17:09:00,,0814.4,5.01,0.00,22.1,21.5,00.0,31.3,23.7,07.1,0000.0,0012.69,0003.47,0001.77
2021-12-29 17:10:00,,0814.4,5.01,0.00,22.1,21.5,00.0,31.3,23.6,07.1,0000.0,0012.24,0003.45,0001.74
2021-12-29 17:11:00,,0814.2,4.98,0.00,22.1,21.3,00.0,31.2,23.6,07.1,0000.0,0012.13,0003.43,0001.71
2021-12-29 17:12:00,,0814.3,5.01,0.00,22.0,21.3,00.0,31.2,23.5,07.1,0000.0,0011.81,0003.35,0001.68
2021-12-29 17:13:00,,0814.3,4.99,0.00,22.0,21.3,00.0,31.2,23.5,07.2,0000.0,0011.61,0003.35,0001.66
2021-12-29 17:14:00,,0814.3,5.01,0.00,22.0,21.5,00.0,31.2,23.6,07.1,0000.0,0012.07,0003.31,0001.63
2021-12-29 17:15:00,,0814.4,4.99,0.00,22.1,22.4,00.0,31.2,23.9,07.1,0000.0,0012.31,0003.27,0001.59
2021-12-29 17:16:00,,0814.4,4.99,0.00,22.3,23.3,00.0,31.3,24.2,07.1,0000.0,0011.75,0003.29,0001.58
2021-12-29 17:17:00,,0814.4,5.00,0.00,22.4,23.3,00.0,31.3,24.4,07.0,0000.0,0012.32,0003.30,0001.59
2021-12-29 17:18:00,,0814.4,5.00,0.00,22.4,23.0,00.0,31.3,24.3,07.0,0000.0,0012.15,0003.28,0001.58
2021-12-29 17:19:00,,0814.4,5.02,0.00,22.4,22.6,00.0,31.3,24.2,07.0,0000.0,0012.08,0003.23,0001.55
2021-12-29 17:20:00,,0814.4,4.99,0.00,22.4,22.4,00.0,31.3,24.1,07.0,0000.0,0011.10,0003.17,0001.54
2021-12-29 17:21:00,,0814.4,5.00,0.00,22.4,22.3,00.0,31.3,24.0,07.1,0000.0,0011.13,0003.11,0001.51
2021-12-29 17:22:00,,0814.4,5.00,0.00,22.4,22.1,00.0,31.3,24.0,07.0,0000.0,0011.54,0003.03,0001.49
2021-12-29 17:23:00,,0814.5,4.99,0.00,22.3,21.9,00.0,31.3,23.9,07.1,0000.0,0011.45,0003.05,0001.47
2021-12-29 17:24:00,,0814.5,5.00,0.00,22.3,21.7,00.0,31.3,23.9,07.1,0000.0,0011.22,0003.04,0001.46
2021-12-29 17:25:00,,0814.6,5.01,0.00,22.2,21.6,00.0,31.3,23.8,07.1,0000.0,0010.75,0002.98,0001.45
2021-12-29 17:26:00,,0814.6,5.00,0.00,22.2,21.6,00.0,31.3,23.8,07.1,0000.0,0009.91,0003.00,0001.44
2021-12-29 17:27:00,,0814.7,5.01,0.00,22.2,21.6,00.0,31.3,23.8,07.1,0000.0,0009.82,0002.94,0001.43
2021-12-29 17:28:00,,0814.7,4.98,0.00,22.2,21.5,00.0,31.3,23.7,07.2,0000.0,0009.41,0002.93,0001.42
2021-12-29 17:29:00,,0814.8,5.00,0.00,22.1,21.4,00.0,31.2,23.7,07.2,0000.0,0010.48,0002.92,0001.41
2021-12-29 17:30:00,,0814.8,5.00,0.00,22.1,21.4,00.0,31.2,23.7,07.2,0000.0,0010.40,0002.87,0001.41
2021-12-29 17:31:00,,0815.0,4.99,0.00,22.1,21.3,00.0,31.2,23.6,07.3,0000.0,0010.58,0002.81,0001.39
2021-12-29 17:32:00,,0814.9,5.00,0.00,22.0,21.3,00.0,31.2,23.6,07.2,0000.0,0010.49,0002.79,0001.38
2021-12-29 17:33:00,,0814.9,5.00,0.00,22.0,21.3,00.0,31.2,23.5,07.2,0000.0,0010.37,0002.79,0001.38
2021-12-29 17:34:00,,0814.6,5.00,0.00,22.0,21.2,00.0,31.1,23.5,07.3,0000.0,0010.19,0002.73,0001.37
2021-12-29 17:35:00,,0814.6,5.00,0.00,21.9,21.2,00.0,31.1,23.5,07.4,0000.0,0010.24,0002.70,0001.37
2021-12-29 17:36:00,,0814.9,5.00,0.00,22.0,21.5,00.0,31.1,23.6,07.4,0000.0,0010.75,0002.67,0001.37
2021-12-29 17:37:00,,0814.9,5.00,0.00,22.1,22.4,00.0,31.2,23.9,07.3,0000.0,0011.06,0002.69,0001.37
2021-12-29 17:38:00,,0814.5,5.01,0.00,22.2,23.2,00.0,31.2,24.2,07.2,0000.0,0011.60,0002.69,0001.36
2021-12-29 17:39:00,,0814.4,4.99,0.00,22.4,23.1,00.0,31.2,24.3,07.2,0000.0,0011.53,0002.63,0001.35
2021-12-29 17:40:00,,0814.5,4.99,0.00,22.3,22.8,00.0,31.2,24.2,07.2,0000.0,0011.15,0002.57,0001.32
2021-12-29 17:41:00,,0814.5,5.00,0.00,22.3,22.6,00.0,31.2,24.0,07.3,0000.0,0011.04,0002.49,0001.29
2021-12-29 17:42:00,,0814.6,4.99,0.00,22.3,22.3,00.0,31.3,24.0,07.3,0000.0,0011.38,0002.46,0001.29
2021-12-29 17:43:00,,0814.3,5.01,0.00,22.3,22.1,00.0,31.3,23.9,07.3,0000.0,0011.94,0002.41,0001.26
2021-12-29 17:44:00,,0814.4,5.00,0.00,22.2,22.0,00.0,31.2,23.8,07.3,0000.0,0011.14,0002.31,0001.25
2021-12-29 17:45:00,,0814.7,5.00,0.00,22.2,21.8,00.0,31.2,23.8,07.3,0000.0,0011.32,0002.29,0001.25
2021-12-29 17:46:00,,0814.5,5.00,0.00,22.2,21.7,00.0,31.2,23.8,07.3,0000.0,0011.46,0002.30,0001.25
2021-12-29 17:47:00,,0814.4,5.00,0.00,22.2,21.6,00.0,31.2,23.8,07.3,0000.0,0010.93,0002.30,0001.25
2021-12-29 17:48:00,,0814.4,5.01,0.00,22.1,21.6,00.0,31.2,23.7,07.3,0000.0,0010.70,0002.24,0001.23
2021-12-29 17:49:00,,0814.4,4.99,0.00,22.1,21.6,00.0,31.2,23.7,07.3,0000.0,0009.86,0002.18,0001.20
2021-12-29 17:50:00,,0814.4,5.01,0.00,22.1,21.5,00.0,31.2,23.7,07.3,0000.0,0009.35,0002.11,0001.19
2021-12-29 17:51:00,,0814.5,5.00,0.00,22.1,21.5,00.0,31.2,23.6,07.4,0000.0,0008.48,0002.09,0001.20
2021-12-29 17:52:00,,0814.4,5.00,0.00,22.0,21.4,00.0,31.2,23.5,07.4,0000.0,0008.34,0002.12,0001.21
2021-12-29 17:53:00,,0814.3,5.00,0.00,22.0,21.3,00.0,31.1,23.5,07.4,0000.0,0009.08,0002.15,0001.21
2021-12-29 17:54:00,,0814.4,4.99,0.00,21.9,21.2,00.0,31.1,23.4,07.4,0000.0,0008.43,0002.17,0001.22
2021-12-29 17:55:00,,0814.3,5.01,0.00,21.9,21.2,00.0,31.1,23.4,07.4,0000.0,0008.49,0002.19,0001.22
2021-12-29 17:56:00,,0814.4,4.99,0.00,21.9,21.7,00.0,31.1,23.6,07.4,0000.0,0008.39,0002.16,0001.20
2021-12-29 17:57:00,,0814.4,5.00,0.00,22.1,22.6,00.0,31.1,23.9,07.4,0000.0,0008.08,0002.11,0001.19
2021-12-29 17:58:00,,0814.3,5.00,0.00,22.3,23.3,00.0,31.2,24.2,07.3,0000.0,0007.95,0002.07,0001.17
2021-12-29 17:59:00,,0814.4,5.01,0.00,22.4,23.1,00.0,31.2,24.3,07.2,0000.0,0008.26,0002.04,0001.18
